Theta_e
350 350 350 350 350 350 350 351 351 352 352 351 351 351 350 352 353 352 351 351 351 351 352 352 353 354 353 353 353 353 353 354 354 352 350 351 352 353 353 353 353 353
349 350 350 350 350 350 351 351 351 352 352 352 352 351 350 352 353 353 351 351 351 351 352 352 353 354 353 353 353 353 353 354 355 353 351 352 353 353 352 352 352 352
349 350 351 350 351 351 351 352 352 353 352 352 353 352 351 352 353 353 352 351 351 351 351 352 353 353 353 353 354 353 353 354 355 354 352 353 353 352 352 352 351 351
350 350 350 350 351 351 351 352 353 353 353 352 353 353 352 352 352 353 353 352 352 351 351 352 352 353 354 354 354 354 354 355 354 353 353 353 353 352 351 351 351 351
351 350 350 350 351 351 352 353 353 353 353 353 353 353 353 352 352 353 353 353 352 351 351 352 353 354 354 355 355 355 355 355 354 352 352 353 353 352 351 351 352 352
352 352 351 350 351 352 352 353 353 353 353 353 353 353 353 352 353 354 354 354 353 352 351 352 353 353 354 355 355 355 355 355 355 354 352 353 353 352 351 351 352 353
353 352 352 351 351 352 353 353 353 353 354 354 354 353 353 353 354 354 354 354 354 352 352 352 352 353 354 354 355 355 355 355 355 355 354 353 353 352 351 352 353 354
353 353 353 352 351 351 351 352 353 354 354 354 354 354 354 354 354 354 354 354 354 352 353 353 353 353 353 354 354 354 355 355 355 356 355 354 352 352 352 353 353 353
353 353 352 352 352 351 351 352 353 354 353 354 355 354 354 355 354 354 353 354 353 353 353 353 353 353 353 354 354 353 354 353 355 355 355 354 353 351 352 353 352 353
353 353 353 352 352 352 352 352 353 353 354 355 355 355 355 355 355 354 354 354 353 352 353 353 353 353 352 353 353 353 352 353 354 354 354 354 353 351 351 352 353 353
353 353 353 353 353 353 353 353 354 354 355 356 356 356 356 356 356 356 355 355 354 353 353 354 353 353 352 351 351 353 353 354 353 352 353 353 353 352 353 353 354 353
354 353 353 353 354 354 354 354 354 355 356 357 357 357 357 356 356 356 356 355 354 353 354 354 354 353 351 350 351 353 354 354 354 353 353 354 353 353 354 353 354 354
353 352 353 354 354 355 355 355 355 355 356 357 357 358 357 357 357 356 356 355 355 354 354 354 353 351 349 350 352 353 354 355 354 354 354 354 355 355 354 354 354 354
351 351 353 354 354 355 355 355 355 355 356 357 358 358 357 357 356 356 355 354 354 354 353 352 351 349 349 350 352 353 354 355 355 354 355 355 355 354 353 354 353 353
350 350 353 354 354 354 354 355 355 355 356 356 357 358 357 355 354 354 354 353 353 352 351 351 349 349 349 350 352 354 354 355 355 354 353 354 354 354 353 353 352 351
351 350 351 353 354 354 354 355 355 355 355 355 357 357 356 354 351 351 352 352 351 351 351 350 350 350 350 350 352 354 354 355 355 354 351 350 351 353 352 352 351 351
350 351 352 352 353 354 354 355 354 354 354 354 355 356 355 354 351 350 351 351 351 350 351 351 351 350 351 352 354 355 355 355 353 353 352 350 349 350 350 351 351 350
350 351 351 352 354 354 353 354 353 353 353 353 354 355 354 353 351 351 350 350 351 351 351 351 351 352 352 354 355 353 352 353 353 354 355 351 350 351 351 351 351 350
351 350 350 351 353 352 352 353 352 352 353 353 353 354 353 351 350 350 350 350 352 352 352 352 353 354 355 356 356 352 350 354 356 355 354 350 350 352 351 350 350 347
352 351 350 350 352 352 351 352 351 351 352 352 352 352 351 350 350 349 349 350 352 352 351 352 352 353 354 354 353 352 353 356 355 352 351 350 350 351 349 348 347 342
352 352 350 350 351 352 352 352 352 352 351 351 351 350 350 349 349 349 349 350 352 352 352 352 351 351 352 352 352 353 355 354 352 351 350 350 350 349 348 346 341 335
352 351 350 351 352 352 352 353 353 352 351 351 350 348 348 349 349 349 349 350 351 351 352 353 352 352 353 353 353 354 354 353 351 351 350 349 349 348 346 341 335 332
352 351 350 351 352 353 354 353 352 352 351 351 350 348 347 348 348 348 349 350 349 350 351 352 351 353 353 353 353 353 352 352 351 350 350 349 348 347 341 335 332 332
352 351 350 351 352 353 353 351 350 351 352 352 351 349 347 347 347 348 348 349 349 349 349 349 351 354 353 353 354 353 352 352 351 349 348 347 344 340 335 332 332 332
350 350 350 350 351 353 353 351 351 353 353 353 352 350 348 347 348 348 348 348 348 348 348 349 352 354 353 354 354 352 351 351 349 347 346 343 339 334 332 332 333 333
349 349 350 350 351 353 354 353 353 353 352 352 351 350 348 347 347 348 346 345 345 345 346 349 352 353 353 354 353 352 351 350 347 345 343 339 335 332 332 333 333 333
Wind_Speed
41 40 38 37 36 35 33 32 32 31 30 29 28 27 26 22 19 19 19 18 19 21 21 22 22 21 20 19 19 18 18 17 16 15 15 15 13 11 10 9 9 10
40 39 37 36 35 34 33 32 32 31 30 29 28 27 26 23 20 19 19 18 18 19 20 21 22 21 20 19 19 19 18 18 16 15 14 13 11 9 8 7 7 8
39 37 35 34 35 34 33 32 31 31 30 29 28 27 27 25 22 21 20 19 19 19 20 21 22 22 21 19 19 18 18 18 16 14 13 12 11 11 10 9 9 8
38 38 38 36 36 35 33 31 30 30 29 28 28 27 26 25 23 22 21 21 21 20 21 22 22 22 21 20 19 18 18 17 15 14 13 12 12 13 13 12 11 10
40 42 42 40 38 35 32 30 29 30 29 29 28 27 26 26 25 23 21 21 22 22 22 23 22 22 22 20 19 18 18 16 15 15 15 14 13 14 14 13 13 13
40 42 42 41 39 35 33 31 30 30 29 29 28 27 26 27 26 24 22 21 22 23 24 23 23 22 22 21 20 19 18 17 16 16 16 15 15 15 15 14 14 12
40 41 42 39 32 27 26 28 29 29 28 27 27 27 27 26 26 25 23 22 22 23 24 24 23 22 21 21 21 20 19 18 18 18 18 17 15 15 16 15 13 11
39 34 28 24 21 18 19 21 23 25 26 25 25 26 26 27 26 25 25 24 22 24 25 24 23 22 21 22 22 21 20 19 19 20 19 18 16 15 15 15 14 12
26 20 20 21 22 25 28 29 25 23 23 25 27 27 27 27 27 27 27 26 24 24 25 24 23 22 22 22 23 23 21 20 21 21 19 19 18 17 16 16 15 14
18 23 27 26 27 31 35 35 30 26 27 28 28 28 28 28 28 28 28 27 25 24 23 23 23 23 22 22 23 24 23 23 22 19 17 18 19 19 18 17 15 15
21 22 18 18 25 32 35 34 30 28 30 30 30 29 29 29 29 29 29 29 27 25 23 23 23 23 23 22 23 24 25 24 20 17 18 21 21 20 19 16 14 14
25 21 17 19 28 34 35 33 32 31 31 31 31 30 30 30 30 30 29 29 29 28 25 24 23 22 21 21 22 23 23 21 19 18 20 22 21 20 18 16 14 13
21 22 23 27 31 36 36 34 33 33 33 32 30 29 29 30 30 29 28 28 28 28 27 25 24 22 20 21 21 22 21 20 19 19 20 20 19 17 16 15 14 12
19 22 29 33 34 36 35 33 32 32 32 31 28 27 28 28 29 28 26 26 27 28 28 26 24 22 21 21 21 20 20 20 20 20 19 19 17 15 14 13 11 10
20 22 28 32 33 33 31 31 31 30 30 29 28 27 26 25 27 27 26 26 27 27 27 26 24 23 22 22 21 20 21 21 21 20 19 16 14 13 12 11 9 8
21 22 26 28 28 30 31 31 31 30 29 30 29 27 26 25 25 26 26 26 26 26 25 24 24 23 21 21 21 22 23 22 20 19 17 13 11 12 11 8 6 6
21 23 26 28 29 31 31 32 33 33 31 31 30 28 27 26 25 26 27 26 26 26 25 24 24 22 20 20 21 22 22 20 16 14 12 12 13 16 15 12 10 10
22 24 25 28 30 31 31 32 33 32 32 32 30 28 26 26 26 26 24 23 22 22 22 23 23 22 21 19 19 18 17 14 13 13 13 12 15 17 16 14 13 11
23 24 24 28 30 28 27 27 29 31 33 33 30 27 26 25 24 20 17 17 17 16 16 17 18 21 22 20 18 17 14 13 14 14 12 11 13 15 14 14 13 11
24 24 26 28 29 27 24 24 27 30 32 32 29 24 21 19 15 13 15 18 18 16 16 15 14 17 19 18 18 16 14 14 14 13 13 14 16 16 15 14 12 9
26 27 28 27 27 26 24 24 26 28 29 26 20 14 10 8 9 13 17 19 19 19 21 20 18 17 16 16 18 16 14 15 17 18 19 19 19 18 17 14 10 7
25 25 24 23 23 23 22 22 24 25 24 17 11 10 10 10 11 14 18 21 22 22 23 24 22 20 18 18 18 17 17 19 20 21 21 21 20 19 16 12 9 7
25 24 23 21 21 20 20 21 22 21 17 15 14 14 17 18 17 17 18 22 24 25 26 25 22 21 21 21 20 20 21 22 22 22 22 22 20 18 14 11 9 8
24 24 23 21 20 20 21 21 19 18 16 16 17 19 21 21 21 22 22 24 26 27 27 25 23 23 24 23 23 24 25 25 25 25 24 22 20 17 14 13 12 11
23 23 23 21 20 22 22 20 18 18 19 18 19 19 21 23 23 24 25 25 26 26 25 25 25 27 27 26 26 26 27 27 27 26 25 23 21 19 17 16 16 15
23 22 22 23 23 23 22 20 20 20 20 20 18 19 23 25 26 26 26 24 24 24 25 27 29 30 28 27 27 27 28 29 28 27 27 25 22 21 20 19 19 19
Wind_Direction
226 226 227 226 227 228 228 229 230 231 234 238 240 240 238 241 247 246 247 249 249 249 247 247 247 245 244 243 244 246 246 248 252 249 246 252 265 275 276 269 262 262
225 226 226 226 227 229 228 229 230 232 235 239 240 239 237 240 246 244 243 244 246 248 247 245 245 244 244 244 245 247 247 247 249 247 244 248 257 263 267 271 266 265
224 224 224 225 228 230 230 230 230 231 235 239 240 239 238 240 245 245 243 242 244 246 245 243 243 244 243 243 246 248 247 247 247 242 240 244 249 252 263 273 269 264
222 223 224 225 228 231 232 229 228 229 233 236 239 239 238 239 243 245 244 243 244 245 244 243 243 244 244 244 246 247 247 247 244 239 241 246 246 250 261 265 257 250
223 224 224 225 227 230 231 229 228 229 230 234 238 238 236 236 240 243 244 245 245 245 244 243 244 246 247 248 246 246 246 245 242 239 243 250 250 250 254 251 245 245
224 224 224 225 226 227 228 228 229 230 231 232 235 236 235 235 237 239 243 247 248 246 244 244 245 246 249 250 248 247 245 244 243 242 245 252 254 250 246 241 240 246
224 225 224 224 225 228 232 231 230 230 230 231 233 233 233 233 235 237 241 247 248 246 244 244 246 247 249 251 250 247 245 244 243 243 246 250 251 247 240 233 234 241
224 224 224 222 221 232 245 246 240 233 228 227 229 231 232 233 236 239 242 246 246 244 243 244 246 249 251 251 250 249 246 243 241 241 243 242 241 241 235 230 235 242
218 216 222 222 221 228 235 237 237 234 232 230 229 232 233 234 237 240 242 244 242 241 242 244 246 249 251 251 251 251 248 244 242 239 237 235 236 238 236 235 239 244
204 214 219 215 217 224 227 227 226 226 230 233 232 232 234 235 238 240 240 240 238 238 240 243 246 249 251 252 251 251 247 242 237 230 230 237 238 236 236 236 238 244
206 210 202 199 216 227 228 226 224 223 227 231 232 232 234 237 238 238 238 237 236 236 237 241 245 249 253 253 252 250 245 238 229 225 233 240 235 232 234 234 239 252
206 193 177 194 218 230 231 227 225 225 227 229 231 234 237 240 241 240 238 237 237 236 238 242 245 248 252 252 248 244 239 231 223 225 233 234 229 231 236 238 245 257
199 190 198 208 218 226 229 226 224 226 228 230 232 236 240 242 243 242 239 239 239 239 240 241 243 244 245 244 241 236 231 223 216 219 226 227 226 228 234 243 252 254
199 200 217 222 223 226 226 224 226 229 229 229 230 234 239 242 244 243 242 240 239 239 239 237 236 236 236 236 231 225 222 214 206 209 215 221 227 231 233 239 239 234
206 203 219 225 225 227 226 227 230 231 229 228 227 229 234 240 244 244 242 239 236 235 234 232 231 230 231 230 221 211 211 208 198 193 197 210 233 243 240 235 224 216
216 208 218 223 225 227 227 229 233 232 228 225 226 230 233 234 239 243 241 239 235 232 229 228 226 226 227 227 218 207 204 201 195 189 186 193 214 223 222 219 208 200
223 218 218 220 224 226 225 228 233 231 226 224 226 230 232 229 230 237 242 242 235 229 226 222 222 224 223 218 211 202 197 194 196 204 197 176 176 185 186 182 182 186
218 217 218 223 226 226 225 228 229 228 225 225 225 227 227 225 225 231 239 242 234 225 221 220 220 219 209 201 200 200 199 195 194 204 204 178 164 169 171 170 173 175
212 211 220 232 234 230 227 226 225 225 225 225 224 224 224 225 224 220 221 227 227 221 219 217 214 205 191 188 200 206 202 194 189 197 202 180 165 167 167 166 167 165
213 212 222 235 239 236 230 223 221 223 226 225 222 220 221 223 216 199 198 212 220 218 214 207 200 196 189 189 200 202 190 184 182 180 175 167 166 169 166 161 160 158
217 217 223 232 237 236 232 226 222 223 226 223 213 200 195 181 160 167 186 203 213 213 209 202 195 196 196 191 191 187 178 174 167 160 159 161 163 163 159 154 152 147
223 223 226 230 232 230 228 226 225 223 219 205 173 157 169 167 155 162 179 196 205 207 206 203 197 194 191 184 178 175 171 167 162 158 158 158 158 156 151 146 141 133
225 226 228 229 226 221 220 222 222 215 199 174 160 170 185 191 189 185 188 195 200 203 204 201 192 185 181 175 172 171 168 165 162 158 155 153 152 150 145 136 128 124
225 227 228 227 222 219 218 218 211 198 181 177 188 191 184 182 189 194 197 199 201 203 204 199 187 178 175 173 172 172 170 167 164 158 150 147 144 140 136 129 119 116
225 225 225 224 224 221 216 208 197 187 184 189 201 196 177 172 183 191 192 193 197 197 197 196 189 178 173 174 175 174 171 168 164 156 148 144 143 139 134 129 123 121
225 221 221 222 223 219 210 199 192 189 187 188 194 191 180 177 183 186 184 186 192 192 190 191 186 176 172 175 175 174 172 168 163 157 151 147 146 142 135 131 128 125